Content
SEND FEEDBACK

Daily
Averages
Monthly
Summary
United States of America

SHIPPENVILLE, PENNSYLVANIA


Home > North America > United States > Pennsylvania
Elevation: 1279 feet     Latitude: 41 12N     Longitude: 079 26W

WEATHER
 
SELECT A DAY
Number of Records: 459,775;   Date Range: 1/1/95 - 10/20/14
 
SHARE

PRINT THIS DATA

[ ← Previous Day ]
WEATHER ALMANAC - JANUARY 31, 2013
[ Next Day → ]
[ °C ]   °F
Weather ElementAverageHighLow
Temperature24.5 °F39.2 °F (12:35 am)17.6 °F (11:15 pm)
Dewpoint17.2 °F35.6 °F (12:35 am)8.6 °F (5:35 pm)
Humidity74.2 %93 % (1:15 am)58 % (5:35 pm)
Barometer29.56 in29.78 in (10:55 pm)29.23 in (12:35 am)
Wind Speed17.9 mph32.2 mph (12:35 am)
Wind Gust41.4 mph (5:55 am)
Weather ElementAverage
Visibility5.9 mi
Wind DirectionWSW (256.5 °)

Weather ElementTotal
Precipitation0.33 in
Heating Degree Days36.6 (Base 65)
Averaged from 69 records on January 31, 2013
WEATHER CONDITIONS BREAKOUT
WIND DIRECTION BREAKOUT
WEATHER BY HOUR - JANUARY 31, 2013
[ °C ]   °F
Local TimeTemperatureDewpointHumidityBarometerVisibilityWind DirectionWind SpeedGust SpeedPrecipitationEventsConditions
12:35 AM39.2 °F35.6 °F87 %29.23 in7.0 miWest (270°)32.2 mph38.0 mph0.12 inOvercast
12:55 AM37.4 °F33.8 °F87 %29.27 in9.0 miWest (260°)20.7 mph29.9 mph0.13 inOvercast
1:15 AM35.6 °F33.8 °F93 %29.25 in10.0 miWest (270°)13.8 mph20.7 mphOvercast
1:35 AM35.6 °F32.0 °F87 %29.25 in6.0 miWest (260°)15.0 mph20.7 mph0.01 inOvercast
1:55 AM33.8 °F30.2 °F87 %29.26 in2.0 miWest (260°)15.0 mph23.0 mph0.02 inOvercast
2:15 AM33.8 °F30.2 °F87 %29.29 in2.5 miWest (260°)19.6 mph33.4 mph0.01 inOvercast
2:35 AM32.0 °F30.2 °F93 %29.29 in3.0 miWSW (250°)15.0 mph31.1 mph0.02 inOvercast
2:55 AM33.8 °F28.4 °F81 %29.29 in10.0 miWest (260°)15.0 mph21.9 mph0.02 inOvercast
3:15 AM30.2 °F28.4 °F93 %29.30 in1.2 miWSW (250°)24.2 mph34.5 mphOvercast
3:35 AM32.0 °F26.6 °F80 %29.31 in10.0 miWest (260°)26.5 mph33.4 mphOvercast
3:55 AM30.2 °F24.8 °F80 %29.33 in10.0 miWest (260°)25.3 mph38.0 mphOvercast
4:15 AM30.2 °F23.0 °F75 %29.34 in10.0 miWest (270°)18.4 mph34.5 mphOvercast
4:35 AM30.2 °F23.0 °F75 %29.35 in10.0 miWest (270°)16.1 mph33.4 mphOvercast
4:55 AM30.2 °F23.0 °F75 %29.37 in10.0 miWSW (250°)19.6 mph31.1 mphOvercast
5:15 AM28.4 °F21.2 °F74 %29.38 in10.0 miWest (260°)28.8 mph38.0 mphOvercast
5:35 AM28.4 °F19.4 °F69 %29.39 in10.0 miWest (260°)17.3 mph34.5 mphOvercast
5:55 AM28.4 °F19.4 °F69 %29.41 in10.0 miWest (270°)24.2 mph41.4 mphOvercast
6:15 AM28.4 °F19.4 °F69 %29.42 in10.0 miWest (260°)21.9 mph28.8 mphOvercast
6:35 AM28.4 °F19.4 °F69 %29.44 in7.0 miWest (260°)23.0 mph31.1 mphOvercast
6:55 AM28.4 °F21.2 °F74 %29.45 in5.0 miWest (260°)20.7 mph32.2 mphOvercast
7:15 AM26.6 °F21.2 °F80 %29.46 in7.0 miWSW (250°)15.0 mph23.0 mphOvercast
7:35 AM26.6 °F21.2 °F80 %29.48 in2.0 miWest (260°)21.9 mph35.7 mphOvercast
7:55 AM26.6 °F21.2 °F80 %29.50 in1.2 miWest (260°)23.0 mph33.4 mphOvercast
8:15 AM26.6 °F19.4 °F74 %29.51 in1.0 miWSW (240°)16.1 mph26.5 mphOvercast
8:35 AM24.8 °F17.6 °F74 %29.53 in1.5 miWSW (250°)20.7 mph28.8 mphOvercast
8:55 AM24.8 °F17.6 °F74 %29.54 in3.0 miWest (260°)20.7 mph31.1 mphMostly Cloudy
9:15 AM24.8 °F15.8 °F69 %29.55 in10.0 miWest (270°)24.2 mph36.8 mphOvercast
9:35 AM24.8 °F15.8 °F69 %29.55 in10.0 miWest (260°)20.7 mph34.5 mphOvercast
9:55 AM24.8 °F17.6 °F74 %29.56 in2.5 miWSW (250°)17.3 mph28.8 mphOvercast
10:15 AM24.8 °F15.8 °F69 %29.57 in10.0 miWest (260°)20.7 mph31.1 mphOvercast
10:35 AM21.2 °F17.6 °F86 %29.59 in0.8 miWest (260°)16.1 mph27.6 mphOvercast
10:55 AM21.2 °F17.6 °F86 %29.60 in0.5 miWSW (250°)21.9 mph35.7 mphOvercast
11:15 AM21.2 °F17.6 °F86 %29.60 in0.5 miWSW (250°)15.0 mph27.6 mphOvercast
11:35 AM21.2 °F15.8 °F80 %29.61 in0.5 miWest (270°)18.4 mph32.2 mphOvercast
11:55 AM23.0 °F14.0 °F68 %29.61 in3.0 miWSW (250°)17.3 mph31.1 mphOvercast
12:15 PM23.0 °F12.2 °F63 %29.61 in6.0 miWest (260°)17.3 mph25.3 mphMostly Cloudy
12:35 PM23.0 °F10.4 °F59 %29.62 in0.5 miWest (260°)23.0 mph34.5 mphOvercast
12:55 PM23.0 °F10.4 °F59 %29.62 in10.0 miWest (260°)15.0 mph29.9 mphOvercast
1:15 PM23.0 °F12.2 °F63 %29.62 in9.0 miWest (260°)16.1 mph27.6 mphOvercast
1:35 PM21.2 °F14.0 °F74 %29.63 in0.8 miWest (260°)23.0 mph35.7 mphOvercast
1:55 PM21.2 °F14.0 °F74 %29.63 in3.0 miWSW (240°)16.1 mph28.8 mphOvercast
2:15 PM21.2 °F12.2 °F68 %29.65 in0.8 miWSW (250°)18.4 mph31.1 mphOvercast
2:35 PM21.2 °F10.4 °F63 %29.66 in7.0 miWest (260°)20.7 mph32.2 mphOvercast
2:55 PM21.2 °F10.4 °F63 %29.66 in9.0 miWSW (250°)20.7 mph27.6 mphOvercast
3:15 PM21.2 °F10.4 °F63 %29.67 in10.0 miWSW (250°)16.1 mph24.2 mphOvercast
3:35 PM19.4 °F10.4 °F68 %29.68 in1.8 miWSW (240°)21.9 mph29.9 mphOvercast
3:55 PM19.4 °F12.2 °F74 %29.69 in8.0 miWest (270°)16.1 mph24.2 mphOvercast
4:15 PM19.4 °F12.2 °F74 %29.70 in3.0 miWest (260°)17.3 mph24.2 mphOvercast
4:35 PM19.4 °F10.4 °F68 %29.71 in8.0 miWest (260°)17.3 mph26.5 mphOvercast
4:55 PM21.2 °F10.4 °F63 %29.71 in10.0 miWest (260°)20.7 mph25.3 mphOvercast
5:15 PM21.2 °F10.4 °F63 %29.71 in10.0 miWest (260°)17.3 mph23.0 mphOvercast
5:35 PM21.2 °F8.6 °F58 %29.72 in8.0 miWest (260°)16.1 mph27.6 mphOvercast
5:55 PM21.2 °F10.4 °F63 %29.72 in9.0 miWSW (240°)12.7 mph21.9 mphOvercast
6:15 PM19.4 °F14.0 °F80 %29.73 in2.5 miWSW (250°)12.7 mph17.3 mphOvercast
6:35 PM19.4 °F14.0 °F80 %29.73 in3.0 miSW (230°)9.2 mphOvercast
6:55 PM19.4 °F14.0 °F80 %29.73 in3.0 miWSW (250°)12.7 mph18.4 mphOvercast
7:15 PM19.4 °F15.8 °F86 %29.73 in3.0 miWSW (250°)12.7 mph17.3 mphOvercast
7:35 PM19.4 °F15.8 °F86 %29.74 in1.2 miSW (230°)10.4 mph18.4 mphOvercast
8:15 PM21.2 °F12.2 °F68 %29.74 in8.0 miWSW (240°)13.8 mph24.2 mphOvercast
8:35 PM19.4 °F12.2 °F74 %29.74 in7.0 miWSW (250°)15.0 mph25.3 mphOvercast
8:55 PM21.2 °F12.2 °F68 %29.75 in8.0 miWest (260°)13.8 mph25.3 mphOvercast
9:15 PM19.4 °F15.8 °F86 %29.76 in3.0 miWSW (250°)12.7 mph20.7 mphMostly Cloudy
9:35 PM19.4 °F10.4 °F68 %29.76 in10.0 miWSW (240°)15.0 mph19.6 mphMostly Cloudy
9:55 PM19.4 °F8.6 °F63 %29.76 in5.0 miWest (260°)12.7 mph21.9 mphOvercast
10:15 PM19.4 °F10.4 °F68 %29.77 in7.0 miWest (260°)13.8 mph27.6 mphOvercast
10:35 PM19.4 °F10.4 °F68 %29.77 in6.0 miWest (270°)12.7 mphOvercast
10:55 PM19.4 °F12.2 °F74 %29.78 in3.0 miWest (260°)17.3 mph21.9 mphOvercast
11:15 PM17.6 °F10.4 °F73 %29.77 in10.0 miWest (270°)11.5 mph16.1 mphMostly Cloudy
11:35 PM17.6 °F8.6 °F68 %29.78 in10.0 miWest (270°)11.5 mph16.1 mphMostly Cloudy
Hourly data recorded from KFKL, located miles away from Shippenville, Pennsylvania







STORIES FROM OUR PARTNERS